DateTime,F1_A11,F1_S11,BsB_S11,BsG_S11,BsR_S11,BbsB_S11,BbsG_S11,BbsR_S11,BaB_A11,BaG_A11,BaR_A11,T_S11,U_S11,P_S11,T1_A11
2016-10-24T00:00:00Z,0000380,21000600,,,,,,,,,,26.2,00.0,0661.7,34.6
2016-10-24T00:01:00Z,0000380,21000600,,,,,,,,,,26.2,00.0,0661.6,34.6
2016-10-24T00:02:00Z,0000380,21000600,,,,,,,,,,26.2,00.0,0661.6,34.6
2016-10-24T00:03:00Z,0000380,61000600,,,,,,,,,,26.2,00.0,0661.6,34.6
2016-10-24T00:04:00Z,0000380,41000600,-000.11,-000.40,0000.11,-001.18,0000.11,0000.19,-000.01,-000.02,0000.00,26.3,00.0,0662.5,34.6
2016-10-24T00:05:00Z,0000380,01000600,0000.11,0000.72,0000.28,0000.13,0000.16,-000.14,0000.01,0000.04,-000.32,26.2,00.0,0662.6,34.6
2016-10-24T00:06:00Z,0000380,01000600,0000.15,-000.18,-000.02,-000.08,0000.00,-000.18,-000.01,-000.02,0000.32,26.2,00.0,0662.5,34.6
2016-10-24T00:07:00Z,0000380,01000600,0000.23,-000.07,-000.21,-000.35,0000.30,-000.08,0000.03,-000.08,0000.01,26.2,00.0,0662.6,34.6
2016-10-24T00:08:00Z,0000380,01000600,-000.86,-000.36,0000.11,-000.64,0000.37,0000.32,0000.00,0000.01,-000.19,26.2,00.0,0662.6,34.6
2016-10-24T00:09:00Z,0000380,01000600,0000.31,-000.38,-000.07,0000.43,-000.24,0000.10,-000.00,-000.17,0000.05,26.2,00.0,0662.5,34.6
2016-10-24T00:10:00Z,0000380,01000600,-000.59,-000.49,0000.26,0000.49,0000.06,0000.21,-000.18,0000.18,-000.19,26.2,00.0,0662.5,34.6
2016-10-24T00:11:00Z,0000380,01000600,-000.51,0000.50,-000.11,-000.18,0000.17,-000.13,0000.20,-000.10,0000.23,26.2,00.0,0662.4,34.6
2016-10-24T00:12:00Z,0000380,01000600,-000.04,-000.25,0000.05,-000.45,-000.40,-000.51,-000.05,0000.19,0000.31,26.2,00.0,0662.4,34.6
2016-10-24T00:13:00Z,0000380,01000600,-000.77,0000.09,0000.44,-000.38,-000.43,0000.19,0000.26,0000.03,-000.33,26.1,00.0,0662.4,34.6
2016-10-24T00:14:00Z,0000380,01000600,0000.29,-000.52,-000.04,0000.51,-000.32,0000.16,-000.15,-000.10,0000.06,26.2,00.0,0662.3,34.6
2016-10-24T00:15:00Z,0000380,01000600,-000.24,0000.43,0000.18,-000.13,-000.24,0000.48,0000.09,0000.13,-000.18,26.2,00.0,0662.3,34.6
2016-10-24T00:16:00Z,0000380,01000600,0001.02,-000.58,-000.22,0000.13,0000.17,0000.02,0000.00,-000.07,0000.13,26.2,00.0,0662.3,34.6
2016-10-24T00:17:00Z,0000380,01000600,-001.38,0000.14,-000.05,0000.13,0000.05,0000.10,-000.03,-000.02,-000.03,26.2,00.0,0662.3,34.6
2016-10-24T00:18:00Z,0000380,01000600,0000.06,-000.72,0000.32,-000.08,-000.24,-000.13,0000.05,0000.06,-000.01,26.2,00.0,0662.3,34.6
2016-10-24T00:19:00Z,0000380,01000600,-001.45,0000.05,0000.76,0000.02,-000.21,-000.05,0000.04,0000.06,0000.04,26.2,00.0,0662.3,34.6
2016-10-24T00:20:00Z,0000380,01000600,-000.18,0000.22,0000.23,-000.19,0000.02,0000.46,-000.04,0000.02,-000.10,26.2,00.0,0662.3,34.6
2016-10-24T00:21:00Z,0000380,01000600,0000.46,-000.16,0000.60,0000.08,-000.03,0000.61,0000.02,-000.03,0000.44,26.1,00.0,0662.3,34.6
2016-10-24T00:22:00Z,0000380,01000600,-000.94,0000.70,-000.43,0000.18,-000.03,0000.19,0000.10,0000.13,-000.13,26.1,00.0,0662.2,34.6
2016-10-24T00:23:00Z,0000380,01000600,-001.41,-000.63,0000.49,-000.26,0000.11,0000.06,-000.03,-000.13,-000.22,26.1,00.0,0662.2,34.6
2016-10-24T00:24:00Z,0000380,01000600,-000.55,-000.04,0000.14,0000.46,-000.11,0000.13,0000.12,0000.14,0000.04,26.1,00.0,0662.2,34.6
2016-10-24T00:25:00Z,0000380,01000600,-000.73,0000.22,0000.30,0000.32,-000.10,0000.26,-000.03,0000.02,-000.09,26.1,00.0,0662.2,34.6
2016-10-24T00:26:00Z,0000380,01000600,-000.66,-000.22,0000.54,-000.25,-000.13,0000.53,-000.04,-000.11,0000.07,26.0,00.0,0662.2,34.6
2016-10-24T00:27:00Z,0000380,01000600,-000.43,0000.89,0000.02,0000.78,0000.35,0000.14,0000.16,0000.17,0000.10,26.0,00.0,0662.2,34.6
2016-10-24T00:28:00Z,0000380,01000600,-000.51,0000.08,0000.36,-000.13,0000.03,0000.21,-000.09,0000.01,-000.03,26.0,00.0,0662.1,34.6
2016-10-24T00:29:00Z,0000380,01000600,0000.20,-000.41,-000.02,0000.21,0000.46,0000.14,-000.04,0000.07,0000.09,26.0,00.0,0662.1,34.6
2016-10-24T00:30:00Z,0000380,01000600,0000.44,-000.18,0000.07,0000.19,-000.21,0000.16,0000.04,-000.01,0000.12,26.1,00.0,0662.0,34.7
2016-10-24T00:31:00Z,0000380,01000600,0000.50,-000.32,0000.16,0000.65,0000.57,0000.10,0000.19,0000.15,0000.02,26.2,00.0,0662.0,34.7
2016-10-24T00:32:00Z,0000380,01000600,-000.02,0000.02,0000.96,0000.16,-000.37,0000.10,0000.08,-000.09,-000.01,26.2,00.0,0662.0,34.7
2016-10-24T00:33:00Z,0000380,01000600,-000.16,0001.11,0000.25,-000.27,0000.37,0000.37,0000.03,0000.05,-000.04,26.2,00.0,0662.0,34.7
2016-10-24T00:34:00Z,0000380,01000600,0000.34,-000.13,0000.21,0000.08,0000.32,-000.14,0000.00,0000.09,-000.18,26.2,00.0,0662.0,34.7
2016-10-24T00:35:00Z,0000380,01000600,-000.18,-000.45,-000.16,0000.27,0000.00,0000.03,0000.14,0000.14,0000.29,26.2,00.0,0661.9,34.7
2016-10-24T00:36:00Z,0000380,01000600,0000.64,-000.72,0000.44,0000.14,0000.35,0000.32,-000.14,-000.05,-000.14,26.2,00.0,0661.9,34.7
2016-10-24T00:37:00Z,0000380,01000600,0001.79,-000.05,0000.28,-000.08,0000.16,0000.10,0000.08,0000.06,0000.01,26.2,00.0,0661.9,34.7
2016-10-24T00:38:00Z,0000380,01000600,-001.12,-000.24,-000.26,-000.65,-000.19,0000.00,0000.27,-000.10,-000.10,26.2,00.0,0661.9,34.7
2016-10-24T00:39:00Z,0000380,01000600,0000.14,0000.14,0000.40,-000.34,0000.19,-000.10,-000.20,0000.23,0000.15,26.2,00.0,0661.9,34.7
2016-10-24T00:40:00Z,0000380,01000600,0000.12,-000.66,0000.29,-000.59,-000.02,0000.14,0000.21,-000.17,0000.19,26.2,00.0,0661.9,34.7
2016-10-24T00:41:00Z,0000380,01000600,-000.43,-000.82,0000.28,0000.00,-000.14,0000.10,-000.09,0000.17,-000.13,26.1,00.0,0661.9,34.7
2016-10-24T00:42:00Z,0000380,01000600,0000.33,0000.26,0000.59,0000.29,0000.08,0000.11,0000.12,-000.02,-000.03,26.1,00.0,0661.8,34.7
2016-10-24T00:43:00Z,0000380,01000600,0000.20,0000.57,0000.31,0000.00,0000.06,0000.22,0000.10,0000.21,0000.39,26.2,00.0,0661.8,34.7
2016-10-24T00:44:00Z,0000380,01000600,-001.40,0000.91,0000.61,0000.46,0000.05,0000.05,0000.01,-000.08,-000.03,26.2,00.0,0661.8,34.7
2016-10-24T00:45:00Z,0000380,01000600,-000.28,0000.17,0000.36,0000.65,0000.16,0000.64,-000.21,0000.05,-000.05,26.2,00.0,0661.8,34.7
2016-10-24T00:46:00Z,0000380,01000600,0000.53,0000.16,0000.02,0000.10,0000.24,0000.03,0000.12,0000.05,-000.04,26.2,00.0,0661.8,34.7
2016-10-24T00:47:00Z,0000380,01000600,-000.31,0000.14,0000.24,-000.06,-000.43,-000.11,0000.26,0000.09,0000.14,26.2,00.0,0661.8,34.7
2016-10-24T00:48:00Z,0000380,01000600,0000.29,-000.71,0000.56,0000.32,-000.10,0000.11,-000.11,-000.02,0000.00,26.3,00.0,0661.8,34.7
2016-10-24T00:49:00Z,0000380,01000600,0000.06,0000.58,0000.64,0000.10,0000.03,0000.10,-000.05,0000.02,-000.33,26.3,00.0,0661.8,34.7
2016-10-24T00:50:00Z,0000380,01000600,-000.52,0000.36,-000.15,-000.03,0000.29,0000.03,0000.18,-000.06,0000.08,26.3,00.0,0661.8,34.7
2016-10-24T00:51:00Z,0000380,01000600,-000.91,0000.62,0000.39,0000.34,0000.19,0000.46,0000.01,0000.16,-000.01,26.3,00.0,0661.8,34.7
2016-10-24T00:52:00Z,0000380,01000600,-001.50,-000.14,0000.30,-000.08,0000.52,0000.27,0000.08,-000.00,0000.40,26.3,00.0,0661.8,34.7
2016-10-24T00:53:00Z,0000380,01000600,-000.94,-001.01,0000.58,-000.11,-000.32,-000.14,-000.19,-000.00,-000.31,26.3,00.0,0661.8,34.7
2016-10-24T00:54:00Z,0000380,01000600,0000.39,0000.96,0000.26,0000.70,0000.33,0000.22,0000.06,-000.09,-000.02,26.3,00.0,0661.8,34.7
2016-10-24T00:55:00Z,0000380,01000600,0000.16,0000.46,-000.02,0000.75,0000.17,0000.27,0000.08,0000.06,0000.32,26.3,00.0,0661.8,34.7
2016-10-24T00:56:00Z,0000380,01000600,0001.10,0000.02,0000.14,0000.59,0000.03,-000.08,-000.12,0000.13,-000.37,26.3,00.0,0661.8,34.7
2016-10-24T00:57:00Z,0000380,41000600,,,,,,,,,,,,0661.9,34.7
2016-10-24T00:58:00Z,0000380,61000600,,,,,,,,,,26.2,00.0,0660.7,34.7
2016-10-24T00:59:00Z,0000380,21000600,,,,,,,,,,26.3,00.0,0660.7,34.7
2016-10-24T01:00:00Z,0000380,21000600,,,,,,,,,,26.3,00.0,0660.7,34.7
2016-10-24T01:01:00Z,0000380,21000600,,,,,,,,,,26.3,00.0,0660.7,34.7
2016-10-24T01:02:00Z,0000380,21000600,,,,,,,,,,26.3,00.0,0660.7,34.7
2016-10-24T01:03:00Z,0000380,61000600,,,,,,,,,,26.3,00.0,0660.7,34.7
2016-10-24T01:04:00Z,0000380,41000600,0001.09,-000.39,0000.38,0000.34,-000.48,0000.05,-000.13,-000.03,0000.04,26.4,00.0,0661.7,34.7
2016-10-24T01:05:00Z,0000380,01000600,0000.68,-000.35,0000.24,-000.30,-000.78,-000.13,0000.11,-000.05,0000.15,26.4,00.0,0661.8,34.7
2016-10-24T01:06:00Z,0000380,01000600,0000.27,-000.09,0000.25,-000.57,-000.13,0000.05,-000.13,0000.09,-000.19,26.4,00.0,0661.8,34.7
2016-10-24T01:07:00Z,0000380,01000600,0001.01,0000.00,-000.40,-000.32,-000.30,-000.10,0000.16,-000.04,0000.07,26.4,00.0,0661.7,34.7
2016-10-24T01:08:00Z,0000380,01000600,0000.17,-000.36,0000.43,-000.05,-000.37,-000.10,0000.10,0000.15,0000.20,26.4,00.0,0661.7,34.7
2016-10-24T01:09:00Z,0000380,01000600,0000.08,-000.32,0000.66,0000.22,-000.38,0000.45,-000.18,-000.10,-000.21,26.4,00.0,0661.8,34.7
2016-10-24T01:10:00Z,0000380,01000600,0001.62,0000.11,0000.44,-000.14,-000.29,-000.16,0000.06,0000.10,0000.16,26.4,00.0,0661.8,34.7
2016-10-24T01:11:00Z,0000380,01000600,0001.48,0000.00,0000.38,0000.13,-000.54,-000.27,-000.04,-000.10,-000.38,26.4,00.0,0661.8,34.7
2016-10-24T01:12:00Z,0000380,01000600,-001.11,0000.04,0000.56,0000.00,-000.22,0000.58,0000.10,-000.04,-000.02,26.3,00.0,0661.8,34.7
2016-10-24T01:13:00Z,0000380,01000600,-000.51,-000.75,0000.64,0000.43,-000.54,-000.08,-000.17,0000.09,0000.43,26.3,00.0,0661.8,34.7
2016-10-24T01:14:00Z,0000380,01000600,-000.20,-000.50,0000.21,0000.40,0000.32,-000.54,0000.11,-000.06,-000.13,26.3,00.0,0661.7,34.7
2016-10-24T01:15:00Z,0000380,01000600,-000.07,0000.18,0000.37,0000.11,-000.62,-000.45,0000.21,-000.05,-000.20,26.3,00.0,0661.7,34.7
2016-10-24T01:16:00Z,0000380,01000600,-000.02,-000.14,0000.02,-000.21,-000.78,-000.14,-000.18,0000.28,-000.07,26.3,00.0,0661.7,34.7
2016-10-24T01:17:00Z,0000380,01000600,-000.33,-000.49,-000.09,-000.24,-000.64,0000.35,0000.19,-000.04,0000.26,26.3,00.0,0661.7,34.7
2016-10-24T01:18:00Z,0000380,01000600,-000.04,-000.34,0000.44,0000.02,-000.41,0000.24,0000.04,0000.06,-000.03,26.3,00.0,0661.7,34.7
2016-10-24T01:19:00Z,0000380,01000600,0000.97,-000.14,-000.30,-000.08,-000.35,-000.27,-000.02,0000.01,0000.14,26.3,00.0,0661.7,34.7
2016-10-24T01:20:00Z,0000380,01000600,0000.89,0000.12,0000.14,0001.07,-000.30,-000.03,0000.17,0000.07,0000.05,26.3,00.0,0661.6,34.7
2016-10-24T01:21:00Z,0000380,01000600,-000.38,0000.00,0000.35,-000.10,-000.35,-000.02,0000.08,-000.05,0000.01,26.3,00.0,0661.6,34.7
2016-10-24T01:22:00Z,0000380,01000600,0000.00,0000.70,0000.35,0000.13,-000.87,-000.11,-000.06,0000.08,-000.03,26.3,00.0,0661.7,34.7
2016-10-24T01:23:00Z,0000380,01000600,0000.31,-000.10,0000.36,0000.06,-000.62,-000.22,-000.07,-000.09,-000.21,26.3,00.0,0661.7,34.7
2016-10-24T01:24:00Z,0000380,01000600,-000.02,-000.10,0000.42,-000.21,-000.32,0000.10,-000.01,0000.03,0000.23,26.3,00.0,0661.7,34.7
2016-10-24T01:25:00Z,0000380,01000600,0000.16,-000.34,0000.02,0000.42,-000.56,-000.21,0000.11,-000.00,-000.21,26.3,00.0,0661.6,34.7
2016-10-24T01:26:00Z,0000380,01000600,0001.45,-000.59,0000.23,0000.56,-000.78,-000.26,-000.07,-000.01,-000.11,26.3,00.0,0661.6,34.7
2016-10-24T01:27:00Z,0000380,01000600,0000.43,-000.22,0000.58,0000.34,-000.70,0000.19,-000.02,0000.16,0000.21,26.3,00.0,0661.6,34.7
2016-10-24T01:28:00Z,0000380,01000600,-001.20,0000.13,0000.16,-000.03,-000.19,-000.42,0000.13,0000.08,0000.38,26.2,00.0,0661.6,34.7
2016-10-24T01:29:00Z,0000380,01000600,-000.20,-000.45,0000.26,-000.11,-000.17,-000.45,-000.00,-000.04,-000.18,26.2,00.0,0661.6,34.7
2016-10-24T01:30:00Z,0000380,01000600,0000.54,-000.02,0000.29,-000.27,-000.43,-000.37,-000.05,0000.16,-000.16,26.2,00.0,0661.6,34.6
2016-10-24T01:31:00Z,0000380,01000600,0000.15,-000.06,0000.38,-000.38,-000.11,-000.32,0000.16,-000.02,0000.34,26.2,00.0,0661.6,34.6
2016-10-24T01:32:00Z,0000380,01000600,0000.26,0000.35,0000.88,0000.42,-000.21,-000.08,-000.00,-000.09,-000.41,26.2,00.0,0661.6,34.6
2016-10-24T01:33:00Z,0000380,01000600,0000.34,0000.06,0000.33,0000.06,-000.16,-000.38,-000.25,-000.10,0000.07,26.2,00.0,0661.6,34.6
2016-10-24T01:34:00Z,0000380,01000600,0001.06,-000.15,0000.43,-000.27,-000.02,-000.02,0000.11,0000.02,-000.00,26.2,00.0,0661.6,34.6
2016-10-24T01:35:00Z,0000380,01000600,0000.25,-000.51,0000.37,-000.02,-000.33,0000.43,0000.06,0000.06,0000.10,26.2,00.0,0661.6,34.6
2016-10-24T01:36:00Z,0000380,01000600,0000.31,0000.57,0000.21,-000.05,-000.21,0000.16,-000.02,-000.15,-000.25,26.1,00.0,0661.6,34.6
2016-10-24T01:37:00Z,0000380,01000600,-000.09,-000.10,0000.73,-000.14,-000.32,-000.06,0000.04,0000.12,0000.23,26.1,00.0,0661.5,34.6
2016-10-24T01:38:00Z,0000380,01000600,0001.06,-000.33,-000.24,0000.18,-000.10,-000.06,-000.01,-000.01,-000.12,26.1,00.0,0661.5,34.6
2016-10-24T01:39:00Z,0000380,01000600,-000.49,-000.26,-000.31,0000.75,-000.44,-000.42,-000.27,0000.19,0000.14,26.1,00.0,0661.6,34.6
2016-10-24T01:40:00Z,0000380,01000600,-000.21,-000.14,0000.63,0000.40,-000.05,0000.11,0000.04,-000.15,0000.29,26.1,00.0,0661.6,34.6
2016-10-24T01:41:00Z,0000380,01000600,-000.61,-000.52,0000.02,0000.30,-000.14,0000.00,0000.27,-000.06,-000.17,26.1,00.0,0661.6,34.6
2016-10-24T01:42:00Z,0000380,01000600,0001.01,0000.12,-000.04,0000.41,-000.32,-000.14,-000.07,0000.10,-000.02,26.1,00.0,0661.6,34.6
2016-10-24T01:43:00Z,0000380,01000600,-000.83,-000.32,0000.57,-000.13,-000.52,-000.08,0000.01,-000.04,-000.17,26.1,00.0,0661.6,34.6
2016-10-24T01:44:00Z,0000380,01000600,0000.64,0000.10,0000.31,-000.06,0000.21,0000.05,0000.10,0000.06,-000.08,26.1,00.0,0661.5,34.6
2016-10-24T01:45:00Z,0000380,01000600,0000.60,-000.67,0000.65,0000.13,-000.33,-000.32,0000.03,0000.21,0000.36,26.1,00.0,0661.5,34.6
2016-10-24T01:46:00Z,0000380,01000600,0000.77,-000.20,0000.76,0000.34,-000.14,0000.11,-000.03,-000.12,-000.18,26.0,00.0,0661.5,34.6
2016-10-24T01:47:00Z,0000380,01000600,-000.67,-000.58,-000.14,0000.43,-000.43,-000.30,-000.05,0000.01,0000.00,26.0,00.0,0661.5,34.6
2016-10-24T01:48:00Z,0000380,01000600,0001.17,-000.37,0000.14,0000.05,0000.13,-000.06,0000.07,0000.10,0000.15,26.0,00.0,0661.5,34.6
2016-10-24T01:49:00Z,0000380,01000600,0000.65,0000.35,0000.32,0000.80,-000.32,0000.06,-000.01,0000.04,-000.04,26.1,00.0,0661.5,34.6
2016-10-24T01:50:00Z,0000380,01000600,0000.67,0000.04,0000.72,0000.05,0000.03,-000.57,0000.11,-000.02,-000.10,26.0,00.0,0661.5,34.6
2016-10-24T01:51:00Z,0000380,01000600,-000.12,-001.18,0000.23,0000.59,-000.22,-000.16,-000.04,-000.07,0000.12,26.0,00.0,0661.5,34.6
2016-10-24T01:52:00Z,0000380,01000600,0000.81,-000.02,0000.24,0000.00,0000.00,-000.03,0000.20,0000.19,0000.07,26.0,00.0,0661.4,34.6
2016-10-24T01:53:00Z,0000380,01000600,0001.03,0000.25,0000.32,0001.04,-000.43,0000.26,-000.12,-000.07,0000.04,26.0,00.0,0661.4,34.6
2016-10-24T01:54:00Z,0000380,01000600,-000.35,-000.61,0000.28,-000.06,-000.64,-000.16,0000.06,-000.05,-000.16,26.0,00.0,0661.4,34.6
2016-10-24T01:55:00Z,0000380,01000600,0000.39,-000.35,0000.47,0000.10,-000.44,-000.13,0000.06,0000.05,0000.17,26.0,00.0,0661.4,34.6
2016-10-24T01:56:00Z,0000380,01010600,-000.78,-000.15,0000.57,-000.11,-000.33,-000.22,-000.30,0000.07,-000.16,26.0,00.0,0661.4,34.6
2016-10-24T01:57:00Z,0000380,41000600,,,,,,,,,,,,0661.4,34.6
2016-10-24T01:58:00Z,0000380,61000600,,,,,,,,,,26.0,00.0,0660.4,34.6
2016-10-24T01:59:00Z,0000380,21000600,,,,,,,,,,26.0,00.0,0660.3,34.6
2016-10-24T02:00:00Z,0000380,21000600,,,,,,,,,,26.0,00.0,0660.3,34.7
2016-10-24T02:01:00Z,0000380,21000600,,,,,,,,,,26.0,00.0,0660.3,34.7
2016-10-24T02:02:00Z,0000380,21000600,,,,,,,,,,26.0,00.0,0660.3,34.7
2016-10-24T02:03:00Z,0000380,61000600,,,,,,,,,,26.0,00.0,0660.4,34.7
2016-10-24T02:04:00Z,0000380,41000600,-000.79,-000.56,0000.14,0000.73,0000.17,0000.03,-000.02,0000.14,0000.03,26.2,00.0,0661.3,34.7
2016-10-24T02:05:00Z,0000380,01000600,-000.04,0000.00,0000.00,-000.03,-000.40,-000.18,0000.07,-000.05,0000.16,26.2,00.0,0661.4,34.7
2016-10-24T02:06:00Z,0000380,01000600,-000.64,-000.27,-000.21,0000.38,0000.00,-000.18,-000.04,-000.11,-000.25,26.2,00.0,0661.4,34.7
2016-10-24T02:07:00Z,0000380,01000600,0000.46,0000.02,-000.05,0001.23,-000.05,0000.38,-000.06,0000.13,-000.27,26.1,00.0,0661.4,34.7
2016-10-24T02:08:00Z,0000380,01000600,0000.09,0000.07,-000.07,0000.00,-000.13,-000.35,-000.08,-000.04,-000.29,26.1,00.0,0661.4,34.7
2016-10-24T02:09:00Z,0000380,01000600,-000.51,0000.32,0000.00,0000.34,0000.05,-000.13,0000.05,0000.09,0000.22,26.1,00.0,0661.4,34.7
2016-10-24T02:10:00Z,0000380,01000600,0000.57,-000.23,-000.04,0000.14,0000.27,-000.06,0000.11,0000.04,-000.02,26.1,00.0,0661.4,34.7
2016-10-24T02:11:00Z,0000380,01000600,0000.57,-000.23,0000.00,0001.12,-000.11,-000.14,-000.06,-000.23,0000.11,26.1,00.0,0661.4,34.7
2016-10-24T02:12:00Z,0000380,01000600,0000.46,0000.04,-000.28,0000.40,-000.22,-000.05,0000.06,0000.37,0000.33,26.1,00.0,0661.4,34.7
2016-10-24T02:13:00Z,0000380,01000600,-000.07,0000.04,-000.39,0000.53,-000.16,0000.37,-000.01,-000.11,0000.02,26.1,00.0,0661.3,34.7
2016-10-24T02:14:00Z,0000380,01000600,-000.70,0000.25,-000.09,-000.22,0000.14,0000.08,-000.16,-000.02,-000.08,26.1,00.0,0661.3,34.7
2016-10-24T02:15:00Z,0000380,01000600,0000.07,0000.38,-000.19,-000.10,-000.10,-000.14,0000.14,0000.06,0000.11,26.2,00.0,0661.4,34.7
2016-10-24T02:16:00Z,0000380,01000600,-000.02,-000.18,-000.41,0000.32,0000.03,0000.02,0000.03,-000.05,-000.21,26.2,00.0,0661.4,34.7
2016-10-24T02:17:00Z,0000380,01000600,0000.65,0000.27,-000.62,0000.26,0000.19,0000.00,0000.02,-000.00,0000.26,26.2,00.0,0661.4,34.7
2016-10-24T02:18:00Z,0000380,01000600,-000.55,0000.07,-000.25,0000.49,0000.64,0000.26,0000.08,-000.01,-000.24,26.2,00.0,0661.4,34.7
2016-10-24T02:19:00Z,0000380,01000600,-001.10,-000.11,-000.07,0000.45,-000.16,-000.19,-000.13,-000.01,0000.17,26.2,00.0,0661.4,34.7
2016-10-24T02:20:00Z,0000380,01000600,0000.57,0000.38,-000.30,0000.53,0000.06,-000.58,0000.03,0000.08,-000.00,26.2,00.0,0661.4,34.7
2016-10-24T02:21:00Z,0000380,01000600,-000.31,0000.04,-000.16,0000.37,-000.56,-000.06,0000.00,-000.08,-000.03,26.2,00.0,0661.4,34.7
2016-10-24T02:22:00Z,0000380,01000600,-000.97,-000.20,-000.44,0000.86,0000.13,0000.27,0000.11,-000.11,-000.15,26.2,00.0,0661.3,34.7
2016-10-24T02:23:00Z,0000380,01000600,-000.77,0000.32,-000.49,0000.56,0000.56,-000.06,-000.15,0000.11,-000.01,26.2,00.0,0661.3,34.7
2016-10-24T02:24:00Z,0000380,01000600,0001.07,0000.25,-000.53,0000.43,-000.05,-000.26,0000.17,0000.10,0000.16,26.2,00.0,0661.3,34.7
2016-10-24T02:25:00Z,0000380,01000600,0000.02,0000.04,-000.18,0000.50,-000.51,-000.42,-000.00,-000.05,-000.06,26.2,00.0,0661.3,34.7
2016-10-24T02:26:00Z,0000380,01000600,-000.44,-000.41,0000.00,0000.62,-000.14,0000.18,-000.04,-000.11,0000.10,26.2,00.0,0661.3,34.7
2016-10-24T02:27:00Z,0000380,01000600,0001.58,-000.31,0000.19,0000.05,0000.14,0000.16,0000.01,0000.13,0000.06,26.2,00.0,0661.3,34.7
2016-10-24T02:28:00Z,0000380,01000600,0001.12,0000.16,-000.28,0000.02,-000.02,0000.03,-000.03,0000.09,0000.01,26.2,00.0,0661.3,34.7
2016-10-24T02:29:00Z,0000380,01000600,0001.08,0000.05,-000.11,0000.78,0000.25,0000.24,-000.09,0000.07,0000.04,26.2,00.0,0661.3,34.7
2016-10-24T02:30:00Z,0000380,01000600,-000.06,0000.03,0000.12,-000.06,0000.16,-000.08,0000.14,-000.15,-000.40,26.3,00.0,0661.3,34.7
2016-10-24T02:31:00Z,0000380,01000600,-000.12,0000.34,0000.13,0001.01,0000.32,-000.02,0000.07,-000.01,-000.05,26.3,00.0,0661.3,34.7
2016-10-24T02:32:00Z,0000380,01000600,-000.15,0000.93,-000.76,0000.43,-000.02,0000.00,-000.09,-000.09,0000.26,26.3,00.0,0661.3,34.7
2016-10-24T02:33:00Z,0000380,01000600,0000.21,0000.19,-000.54,-000.27,0000.16,-000.18,-000.16,0000.06,-000.00,26.3,00.0,0661.3,34.7
2016-10-24T02:34:00Z,0000380,01000600,0000.04,-000.04,-000.16,0000.45,-000.70,-000.27,0000.26,0000.11,-000.01,26.3,00.0,0661.3,34.7
2016-10-24T02:35:00Z,0000380,01000600,-000.39,-000.18,0000.16,0000.56,0000.19,-000.08,-000.13,-000.22,-000.12,26.2,00.0,0661.3,34.7
2016-10-24T02:36:00Z,0000380,01000600,0000.24,-000.10,-000.08,0000.21,0000.10,0000.18,0000.10,0000.07,0000.00,26.2,00.0,0661.2,34.7
2016-10-24T02:37:00Z,0000380,01000600,-000.24,0000.07,-000.18,-000.02,0000.37,0000.14,-000.08,0000.01,0000.03,26.3,00.0,0661.2,34.7
2016-10-24T02:38:00Z,0000380,01000600,-000.85,-000.04,0000.00,0000.61,0000.29,0000.22,0000.20,0000.06,-000.11,26.2,00.0,0661.2,34.7
2016-10-24T02:39:00Z,0000380,01000600,0000.79,-000.36,-000.55,0000.69,-000.13,-000.02,-000.04,0000.08,0000.23,26.3,00.0,0661.2,34.7
2016-10-24T02:40:00Z,0000380,01000600,0000.75,-000.02,-000.35,0000.91,-000.17,0000.10,0000.06,-000.17,0000.07,26.2,00.0,0661.2,34.7
2016-10-24T02:41:00Z,0000380,01000600,-000.06,-000.16,-000.41,0000.73,0000.22,0000.03,0000.01,0000.22,0000.19,26.2,00.0,0661.2,34.7
2016-10-24T02:42:00Z,0000380,01000600,-000.15,0000.77,-000.14,0000.30,0000.29,-000.29,-000.16,-000.10,-000.17,26.2,00.0,0661.1,34.7
2016-10-24T02:43:00Z,0000380,01000600,-000.24,-000.31,-000.16,0000.86,0000.33,0000.26,0000.03,0000.03,0000.06,26.2,00.0,0661.1,34.7
2016-10-24T02:44:00Z,0000380,01000600,0000.12,0000.34,-000.14,0000.26,0000.16,0000.06,0000.20,0000.07,-000.17,26.2,00.0,0661.1,34.7
2016-10-24T02:45:00Z,0000380,01000600,0000.23,0000.48,0000.82,0000.59,0000.03,0000.24,-000.11,-000.21,-000.02,26.2,00.0,0661.1,34.6
2016-10-24T02:46:00Z,0000380,01000600,0000.59,-000.19,0000.37,-000.26,-000.16,-000.45,0000.06,0000.08,-000.12,26.2,00.0,0661.1,34.6
2016-10-24T02:47:00Z,0000380,01000600,0000.22,-000.02,-000.18,0000.48,0000.08,-000.19,0000.08,0000.09,0000.13,26.2,00.0,0661.1,34.6
2016-10-24T02:48:00Z,0000380,01000600,-000.36,-000.09,-000.07,0000.21,0000.10,0000.34,-000.02,0000.10,0000.38,26.2,00.0,0661.1,34.6
2016-10-24T02:49:00Z,0000380,01000600,-000.12,0000.03,-000.03,-000.10,-000.48,-000.27,0000.07,-000.13,-000.31,26.2,00.0,0661.1,34.6
2016-10-24T02:50:00Z,0000380,01000600,0000.02,-000.43,0000.09,0000.35,0000.03,0000.10,-000.06,0000.10,0000.09,26.2,00.0,0661.1,34.6
2016-10-24T02:51:00Z,0000380,01000600,-001.29,-000.02,-000.58,0000.81,-000.29,-000.34,0000.05,0000.00,0000.27,26.1,00.0,0661.1,34.6
2016-10-24T02:52:00Z,0000380,01000600,-000.70,-000.05,-000.05,0000.70,-000.21,0000.05,0000.10,-000.06,-000.79,26.1,00.0,0661.1,34.6
2016-10-24T02:53:00Z,0000380,01000600,-000.72,-000.49,0000.33,0000.46,-000.24,0000.34,-000.08,-000.01,0000.52,26.1,00.0,0661.1,34.6
2016-10-24T02:54:00Z,0000380,01000600,-000.53,0000.16,0000.07,0000.88,0000.00,0000.50,-000.01,0000.18,-000.24,26.1,00.0,0661.0,34.6
2016-10-24T02:55:00Z,0000380,01000600,-000.48,0000.67,0000.34,0000.70,0000.22,0000.24,0000.11,-000.02,0000.24,26.1,00.0,0661.0,34.6
2016-10-24T02:56:00Z,0000380,01000600,0000.55,0000.15,0000.17,0000.32,-000.25,-000.08,-000.18,0000.05,-000.07,26.1,00.0,0661.0,34.6
2016-10-24T02:57:00Z,0000380,41000600,,,,,,,,,,,,0661.0,34.6
2016-10-24T02:58:00Z,0000380,61000600,,,,,,,,,,26.0,00.0,0659.9,34.6
2016-10-24T02:59:00Z,0000380,21000600,,,,,,,,,,26.0,00.0,0659.9,34.6
2016-10-24T03:00:00Z,0000380,21000600,,,,,,,,,,26.0,00.0,0659.9,34.6
2016-10-24T03:01:00Z,0000380,21000600,,,,,,,,,,26.0,00.0,0659.9,34.6
2016-10-24T03:02:00Z,0000380,21000600,,,,,,,,,,26.0,00.0,0659.9,34.6
2016-10-24T03:03:00Z,0000380,61000600,,,,,,,,,,26.0,00.0,0659.9,34.6
2016-10-24T03:04:00Z,0000380,41000600,0000.40,0000.03,0000.35,0000.40,0000.33,0000.26,0000.06,0000.19,0000.05,26.0,00.0,0660.9,34.6
2016-10-24T03:05:00Z,0000380,01000600,0000.66,-000.31,0000.09,0000.67,-000.62,-000.05,-000.11,0000.01,0000.07,26.0,00.0,0661.0,34.6
2016-10-24T03:06:00Z,0000380,01000600,-000.69,0000.03,-000.27,0000.45,-000.21,-000.34,-000.01,-000.05,-000.09,26.0,00.0,0660.9,34.6
2016-10-24T03:07:00Z,0000380,01000600,-000.77,-000.42,0000.06,-000.24,-000.10,0000.03,0000.11,0000.03,0000.08,26.0,00.0,0660.9,34.6
2016-10-24T03:08:00Z,0000380,01000600,-000.68,-000.40,0000.67,0000.14,-000.29,0000.13,-000.07,0000.10,0000.30,26.0,00.0,0660.9,34.6
2016-10-24T03:09:00Z,0000380,01000600,0000.24,-000.50,0000.44,-000.03,0000.06,0000.11,0000.03,0000.01,-000.28,26.0,00.0,0660.9,34.6
2016-10-24T03:10:00Z,0000380,01000600,-000.24,0000.04,0000.58,0000.85,0000.51,-000.27,-000.00,0000.05,0000.25,26.0,00.0,0660.9,34.6
2016-10-24T03:11:00Z,0000380,01000600,0000.18,-000.40,0000.49,0000.14,-000.08,-000.08,0000.02,0000.05,-000.09,26.0,00.0,0660.9,34.6
2016-10-24T03:12:00Z,0000380,01000600,-000.17,-000.67,0000.44,-000.45,-000.38,-000.34,-000.04,-000.17,-000.05,26.0,00.0,0660.8,34.6